Back to catalog

STARLINK-33751

AliveCommunicationsVLEO
NORAD 63512·PAYLOAD·🇺🇸 United States

Launched Apr 7, 2025 from Vandenberg Space Force Base

Loading…

Next Passes (next 24 hours)

TLE

FreshSource: CelesTrak SupGP

Epoch: Sep 14, 2026, 21:33 UTC

1 63512C 25071V   26257.89840278 -.00015361  00000+0 -49409-3 0  2573
2 63512  53.1601 339.8098 0001240  83.8189 354.6815 15.31702115    18

Track STARLINK-33751 in real time with AllMySat

Download on the App Store